Location: Hurstbourne Priors
(51.2000°N, 1.3667°W)
Time: 00:36:31
(UTC+00:00)

ATLAS CENTAUR R/B - Pass Details

Date: 09 April 2020
Orbit: 471 x 675 km, 64.7° (Epoch: 01 June)

Event Time Altitude Azimuth Distance (km) Brightness Sun altitude
Rises 20:14:17 0° 320° (NW) 2,724 6.4 -12.7°
Reaches altitude 10° 20:16:49 10° 333° (NNW) 1,790 4.9 -13.0°
Maximum altitude 20:20:13 26° 31° (NNE) 1,039 2.7 -13.5°
Enters shadow 20:22:26 16° 79° (E) 1,386 2.9 -13.8°
